Home > Weather > Bozeman > Past weeks

Flag for USA Past Weather in Bozeman, Montana, USA — Yesterday and Last 2 Weeks

Now
58 °F

Clear.


Feels Like: 57 °F
Forecast: 58 / 89 °F
Wind: 6 mph from Northeast

Location: Gallatin Field

Current Time: Jul 30, 2016 at 5:15:24 AM

Latest Report: Jul 30, 2016 at 3:56 AM


Visibility: 10 mi

Pressure: 29.81 "Hg (25.04 "Hg at 1469m altitude)

Humidity: 78%

Dew Point: 51 °F

Location of BozemanLocation

Past Weather in Bozeman — Graph

°F

Bozeman Temperature Yesterday

Maximum temperature yesterday: 88 °F (at 6:56 PM)
Minimum temperature yesterday: 58 °F (at 1:56 AM)
Average temperature yesterday: 72 °F

High & Low Weather Summary for the Past Weeks

 TemperatureHumidityPressure
High97 °F (Jul 22, 1:56 PM)89% (Jul 16, 5:56 AM)30.21 "Hg (Jul 16, 5:56 AM)
Low47 °F (Jul 15, 5:56 AM)8% (Jul 18, 5:56 PM)29.72 "Hg (Jul 22, 5:56 PM)
Average70 °F46%29.96 "Hg
* Reported Jul 15 3:56 AM — Jul 30 3:56 AM, Bozeman, Weather by CustomWeather, © 2016

Note: Actual official high and low records may vary slightly from our data, if they occured in-between our weather recording intervals... More about our weather records

Advertising

Bozeman Weather History for the Previous 24 Hours

Scroll right to see more
 ConditionsComfort  
Time TempWeatherWind HumidityBarometerVisibility
3:56 AM
Sat, Jul 30
58 °FClear.6 mph78%29.81 "Hg10 mi
2:56 AM59 °FClear.6 mph69%29.81 "Hg10 mi
1:56 AM66 °FClear.5 mph56%29.82 "Hg10 mi
12:56 AM66 °FClear.7 mph56%29.83 "Hg10 mi
11:56 PM
Fri, Jul 29
69 °FClear.7 mph51%29.84 "Hg10 mi
10:56 PM74 °FClear.3 mph40%29.84 "Hg10 mi
9:56 PM68 °FClear.5 mph55%29.86 "Hg10 mi
8:56 PM75 °FSunny.N/A37%29.85 "Hg10 mi
7:56 PM84 °FSunny.No wind31%29.84 "Hg10 mi
6:56 PM88 °FSunny.No wind21%29.86 "Hg10 mi
5:56 PM86 °FSunny.3 mph27%29.88 "Hg10 mi
4:56 PM87 °FSunny.N/A21%29.89 "Hg10 mi
3:56 PM87 °FSunny.6 mph25%29.91 "Hg10 mi
2:56 PM86 °FSunny.3 mph19%29.94 "Hg10 mi
1:56 PM84 °FSunny.6 mph27%29.96 "Hg10 mi
12:56 PM81 °FSunny.6 mph38%29.98 "Hg10 mi
11:56 AM77 °FSunny.No wind44%30.00 "Hg10 mi
10:56 AM73 °FSunny.3 mph46%30.02 "Hg10 mi
9:56 AM71 °FSunny.5 mph47%30.03 "Hg10 mi
8:56 AM66 °FSunny.No wind59%30.05 "Hg10 mi
7:56 AM64 °FSunny.No wind61%30.03 "Hg10 mi
6:56 AM58 °FClear.6 mph70%30.02 "Hg10 mi
5:56 AM58 °FClear.No wind70%30.01 "Hg10 mi
Weather by CustomWeather, © 2016

See weather overviewHow to use our weather pages